{"data":{"norad_id":59636,"intl_designator":"2024-082F","name":"STARLINK-31802","alt_names":[],"object_type":"PAYLOAD","status":"ACTIVE","operator":null,"country":"US","launch_date":"2024-05-03","launch_site_code":"AFETR","launch_vehicle":null,"mission":null,"orbit_class":"UNKNOWN","rcs_meters":null,"size_class":null,"mass_kg":null,"dimensions":null,"purposes":["comms"],"wikipedia_slug":null,"has_3d_model":false,"image_url":null,"decayed_at":null,"tle_current":{"epoch":"2026-09-21T06:57:33.832224Z","epoch_age_seconds":99864,"freshness":"FRESH","line1":"1 59636U 24082F   26264.28997491 -.00000268  00000+0 -21320-6 0  9995","line2":"2 59636  43.0043 115.4037 0001756 269.0464  91.0186 15.27577519134727","mean_motion":15.27577519,"eccentricity":0.0001756,"inclination_deg":43.0043,"raan_deg":115.4037,"arg_perigee_deg":269.0464,"mean_anomaly_deg":91.0186,"bstar":-2.132e-7,"rev_number":13472,"period_min":94.266901816064,"perigee_km":481.85169947324,"apogee_km":484.26135063924,"semimajor_km":6861.1935250562,"source":"CELESTRAK","updated_at":"2026-09-22T09:00:49.017959Z"}}}